SCP
0 0 0 0 0 0 0 0 0 0 0 0 0 0 0 0 0 0 0 0 0 0 0 0 0 0 0 0 0 0 0 0 0 0 0 0 0 0 0 0 0 0 -0 -0 0
0 0 0 0 0 0 0 0 0 0 0 0 0 0 0 0 0 0 0 0 0 0 0 0 0 0 0 0 0 0 0 0 0 0 0 0 0 0 0 0 -0 0 0 0 0
0 0 0 0 0 0 0 0 0 0 0 0 0 0 0 0 0 0 0 0 0 0 0 0 0 0 0 0 0 0 0 0 0 0 0 0 0 0 0 0 0 0 0 0 0
0 0 0 0 0 0 0 0 0 0 0 0 0 0 0 0 0 0 0 0 0 0 0 0 0 0 0 0 0 0 0 0 0 0 0 0 0 0 0 0 0 0 0 0 0
0 0 0 0 0 0 0 0 0 0 0 0 0 0 0 0 0 -0 0 0 0 0 0 0 0 0 0 0 0 0 0 0 0 0 0 0 0 0 0 0 0 0 0 0 0
0 0 0 0 0 0 0 0 0 0 0 0 0 0 0 0 0 0 0 0 0 0 0 0 0 0 0 0 0 0 0 0 0 0 0 0 0 0 0 0 0 0 0 0 0
0 0 -0 -0 -0 -0 -0 0 0 0 0 0 0 0 0 0 0 0 0 0 0 0 0 0 0 0 0 0 0 0 0 0 0 0 0 0 0 0 0 0 0 0 0 0 0
-0 -0 -0 -0 -0 -0 -0 -0 0 0 0 0 0 0 0 0 0 0 0 0 0 0 0 0 0 0 0 0 0 0 0 0 0 0 0 0 0 0 0 0 0 0 0 0 0
-0 -0 -0 -0 -0 -0 -0 -0 0 0 0 0 0 0 0 0 0 0 0 0 0 0 0 0 0 0 0 0 0 0 0 0 0 0 0 0 0 0 0 0 0 0 0 0 0
-0 -0 -0 -0 -0 -0 -0 -0 0 0 0 0 0 0 0 0 0 0 0 0 0 0 0 0 0 0 0 0 0 0 0 0 0 0 0 0 0 0 0 0 0 0 0 0 0
-0 -0 -0 -0 -0 -0 -0 0 0 0 -0 0 0 0 0 0 0 0 0 0 0 0 0 0 0 0 0 0 -0 0 0 0 0 0 0 0 0 0 0 0 0 0 0 0 0
0 -0 -0 -0 -0 -0 0 0 0 0 0 0 0 0 0 0 0 0 0 0 0 0 0 0 0 0 0 0 0 0 0 0 0 0 0 0 0 0 0 0 0 0 0 0 0
0 -0 -0 -0 -0 0 0 0 0 0 0 0 0 0 0 0 0 0 0 0 0 0 0 0 0 0 0 0 0 0 0 0 0 0 0 0 0 0 0 0 0 0 0 0 0
0 0 0 -0 0 0 0 0 0 0 0 -0 0 0 0 0 0 0 0 0 0 0 0 0 0 0 0 0 0 0 0 0 0 0 0 -0 0 0 0 0 0 0 0 0 0
0 0 0 0 0 0 0 0 0 0 0 0 0 0 0 0 0 0 0 0 0 0 0 0 0 0 0 0 0 0 0 0 0 -0 0 0 0 0 0 0 0 0 0 0 0
0 0 0 0 0 0 0 0 0 0 0 0 0 0 0 0 0 0 0 0 0 0 0 0 0 0 0 0 0 0 0 0 0 0 0 0 0 0 0 0 0 0 0 0 0
0 0 0 0 0 0 0 0 0 0 0 0 0 0 0 0 0 0 0 0 0 0 0 0 0 0 0 0 0 0 0 0 0 0 0 0 0 0 0 0 0 0 0 0 0
0 0 0 0 0 0 0 0 0 0 0 0 0 0 0 0 0 0 0 0 0 0 0 0 0 0 0 0 0 0 0 0 0 0 0 0 0 0 0 0 0 0 0 0 0
0 0 0 0 0 0 0 0 0 0 0 0 0 0 0 0 0 0 0 0 0 0 0 0 0 0 0 0 0 0 0 0 0 0 0 0 0 0 0 0 0 0 0 0 0
0 0 0 0 0 0 0 0 0 0 0 0 0 0 0 0 0 0 0 0 0 0 0 0 0 0 0 0 0 0 0 0 0 0 0 0 0 0 0 0 0 0 0 0 0
0 0 0 0 0 0 0 0 0 0 0 0 0 0 0 0 0 0 0 0 0 0 0 0 0 0 0 0 0 0 0 0 0 0 0 0 0 0 0 0 0 0 0 0 0
0 0 0 0 0 0 0 0 0 0 0 0 0 0 0 0 0 0 0 0 0 0 0 0 0 0 0 0 0 0 0 0 0 0 0 0 0 0 0 0 0 0 0 0 0
0 0 0 0 0 0 0 0 0 0 0 0 0 0 0 0 0 0 0 0 0 0 0 0 0 0 0 0 0 0 0 0 0 0 0 0 0 0 0 0 0 0 0 0 0
0 0 0 0 0 0 0 0 0 0 0 0 0 0 0 0 0 0 0 0 0 0 0 0 0 0 0 0 0 0 0 0 0 0 0 0 0 0 0 0 0 0 0 0 0
0 0 0 0 0 0 0 0 0 0 0 0 0 0 0 0 0 0 0 0 0 0 0 0 0 0 0 0 0 0 0 0 0 0 0 0 0 0 0 0 0 0 0 0 0
0 0 0 0 0 0 0 0 0 0 0 0 0 0 0 0 0 0 0 0 0 0 0 0 0 0 0 0 0 0 0 0 0 0 0 0 0 0 0 0 0 0 0 0 0
0 0 -0 0 0 0 0 0 0 0 0 0 0 0 0 0 0 0 0 0 0 0 0 0 0 0 0 0 0 0 0 0 0 0 0 0 0 0 0 0 0 0 0 0 0
Wind_Speed_500mb
32 29 28 26 25 24 26 28 29 27 25 23 19 20 18 17 12 8 11 23 27 22 11 10 17 20 19 22 20 19 19 24 24 31 23 21 31 13 47 49 45 44 33 22 21
33 30 27 26 27 27 26 27 29 27 24 22 19 15 14 12 12 14 32 32 25 14 11 9 15 13 22 19 16 17 17 11 25 27 18 27 43 23 37 42 39 38 35 25 18
34 30 29 26 26 27 27 28 28 27 24 22 20 17 20 11 15 13 21 27 20 14 13 18 21 16 27 20 19 19 10 22 20 16 18 33 40 36 25 25 26 26 28 28 19
33 33 30 29 28 27 28 26 25 23 22 19 18 18 22 14 6 9 20 17 13 8 11 19 21 26 19 24 25 7 4 22 18 21 14 23 36 33 33 21 16 18 20 22 24
34 33 31 30 31 28 26 23 21 17 17 14 13 15 22 16 23 14 17 10 3 12 16 21 23 27 27 29 15 21 22 17 12 16 15 8 35 30 26 14 17 19 26 26 37
39 36 33 30 32 27 26 23 19 11 10 9 11 18 23 27 8 11 21 9 10 11 15 18 23 24 20 8 17 24 27 16 9 15 6 26 28 33 22 17 24 31 35 53 53
39 39 37 31 27 28 26 23 15 8 6 11 14 17 16 21 5 7 13 8 11 10 14 13 14 18 8 9 3 17 27 17 7 14 3 46 26 22 18 18 30 35 50 48 49
40 40 43 32 28 25 24 19 13 6 10 14 14 13 14 10 10 8 7 10 7 9 8 9 12 15 15 16 16 20 22 14 10 14 7 5 25 23 20 32 38 45 46 48 47
39 38 41 35 31 22 18 13 6 5 13 16 12 15 18 6 9 7 6 9 7 10 12 8 9 13 10 23 21 28 24 24 13 24 15 13 23 25 30 35 42 45 44 45 45
38 38 37 34 29 21 7 4 6 11 6 15 20 18 20 13 9 8 6 11 8 11 11 14 16 13 19 24 26 31 33 34 20 23 21 37 29 26 34 34 41 40 40 41 45
38 36 37 32 23 15 10 7 5 11 24 18 16 18 9 7 10 6 10 10 12 13 18 26 17 23 33 35 37 38 32 32 23 34 39 35 32 28 36 36 36 36 37 38 41
40 37 33 31 19 7 6 13 13 14 17 35 24 16 7 12 11 7 14 18 16 22 26 17 27 11 10 2 17 17 34 33 21 34 35 36 34 28 31 31 32 33 31 33 35
43 35 33 25 13 6 9 13 17 15 15 25 32 30 22 20 10 11 13 23 18 20 24 25 19 5 7 10 20 17 33 33 36 23 38 38 30 28 29 31 30 28 29 29 30
51 36 29 20 4 8 9 13 15 11 10 22 24 18 24 15 13 8 9 10 9 25 16 13 8 12 16 22 16 20 9 32 40 36 31 42 16 28 30 26 25 25 24 25 25
54 38 23 17 10 8 15 20 10 8 8 31 29 18 27 25 23 16 13 8 16 17 5 11 17 20 25 15 9 13 9 18 32 31 19 38 10 26 29 27 22 28 24 25 23
51 45 27 6 16 18 23 8 2 4 14 17 24 20 24 32 17 15 20 11 7 13 12 20 11 4 9 13 9 24 19 12 17 18 16 25 27 25 28 28 21 23 27 23 24
48 52 34 25 10 11 9 5 7 10 12 21 23 26 33 23 24 18 22 24 16 21 29 15 14 4 18 23 13 24 29 13 14 13 15 24 15 21 29 24 26 23 28 24 22
47 53 33 28 20 16 6 11 16 20 32 11 20 28 36 30 26 25 26 28 32 27 27 22 11 21 24 14 14 31 33 7 14 20 18 13 14 19 28 31 26 24 23 21 19
43 40 35 25 20 16 22 19 15 18 28 31 21 25 35 32 21 27 31 31 28 34 18 29 14 16 15 8 16 26 14 8 4 4 14 20 19 20 27 26 25 20 19 14 12
40 41 44 22 26 21 21 26 26 36 31 28 34 31 39 39 21 27 31 31 31 26 3 4 14 20 12 10 12 11 6 10 7 9 10 24 28 14 35 29 24 23 17 13 8
29 19 11 25 26 31 20 21 40 48 30 20 33 30 37 31 34 35 26 11 19 19 20 5 12 17 15 20 25 12 12 10 7 5 10 10 8 25 36 31 26 23 17 8 5
25 8 13 20 23 20 22 42 35 41 47 31 35 47 27 38 37 36 35 22 26 30 17 6 10 16 29 12 11 20 23 22 9 13 8 8 11 20 26 30 23 17 13 9 3
16 26 27 16 13 19 25 48 59 46 46 31 30 28 30 34 30 37 36 23 34 27 21 15 12 16 10 6 12 12 16 19 4 3 18 7 15 19 28 27 22 16 13 10 10
20 6 31 35 42 32 35 43 47 53 56 49 31 32 28 35 28 27 23 16 30 26 12 6 14 16 13 3 25 23 29 24 17 6 5 12 31 28 24 22 29 16 14 14 8
17 10 18 9 22 32 39 32 47 50 53 43 38 40 33 29 32 26 30 24 26 11 13 6 12 14 3 8 16 28 33 31 28 15 12 13 30 36 32 24 20 13 17 14 11
19 15 40 44 47 37 44 39 53 46 49 49 41 41 34 31 34 30 30 35 22 20 26 11 11 17 10 7 3 16 22 32 31 29 21 14 9 17 22 21 15 20 19 13 7
34 58 50 29 43 37 33 52 45 49 59 66 46 33 37 41 34 30 46 44 14 26 28 22 15 18 10 16 7 9 33 33 31 33 29 25 20 19 10 18 24 23 19 13 6
Wind_Direction_500mb
333 329 324 317 306 292 282 280 276 275 272 270 268 272 270 263 249 247 265 241 266 268 281 319 317 270 251 257 252 280 270 253 323 85 92 53 77 47 89 69 56 49 74 83 117
336 330 326 317 307 298 287 283 279 275 268 263 257 250 242 223 243 283 238 263 271 270 232 332 296 249 238 243 225 219 229 52 39 62 86 72 58 11 90 63 53 52 45 85 100
334 331 327 321 313 303 294 289 284 277 268 258 250 222 211 242 294 228 241 269 267 263 248 297 280 267 249 229 223 236 290 90 58 23 42 90 74 38 68 59 52 52 50 40 72
334 331 329 325 320 309 298 293 289 282 270 262 248 217 208 218 264 286 273 269 254 244 266 272 255 239 234 228 213 221 26 61 80 47 50 74 98 68 56 57 59 68 57 54 54
330 332 326 329 322 312 302 296 294 289 279 263 241 208 188 225 255 313 298 303 220 286 268 248 243 239 237 209 181 243 109 105 110 89 57 167 99 85 54 59 77 79 71 59 46
333 331 323 332 323 315 308 298 292 286 273 239 210 188 182 241 251 314 294 303 288 265 257 240 240 249 304 224 206 142 128 105 90 103 83 96 59 55 49 70 78 78 77 56 51
336 331 323 333 320 320 308 298 285 268 216 196 182 182 237 237 297 303 309 284 254 250 249 247 258 224 203 63 44 141 130 103 54 167 108 115 74 63 66 89 83 74 68 58 52
336 336 323 332 317 325 310 297 279 216 170 182 193 204 261 224 220 321 271 272 248 238 236 242 247 258 195 123 154 186 176 180 131 168 169 293 94 70 62 87 82 73 67 63 58
335 336 327 331 321 329 310 296 249 176 163 170 204 222 252 226 190 256 231 230 211 216 226 235 178 194 195 178 178 199 198 179 130 187 160 168 109 80 79 90 85 83 77 68 63
333 332 331 331 327 329 323 322 156 140 157 187 263 237 224 225 182 208 224 176 199 187 198 200 202 197 211 207 197 194 228 168 132 168 141 112 108 104 99 93 94 88 79 72 65
330 330 330 330 330 331 112 66 241 232 215 215 285 239 141 166 186 191 200 182 191 219 216 199 211 205 202 212 240 290 199 106 136 126 121 121 118 106 105 100 91 84 81 77 69
331 328 331 328 329 314 186 346 19 319 290 235 250 252 172 194 182 182 171 202 198 217 219 179 227 77 18 296 238 191 128 130 121 133 129 128 120 115 102 92 91 91 78 68 70
329 328 328 332 343 62 315 304 330 320 256 209 217 220 208 203 215 164 207 214 215 224 202 205 106 130 173 199 208 167 143 155 170 182 136 132 131 129 125 118 110 93 82 77 68
335 325 332 333 346 321 296 299 315 338 275 196 197 217 181 203 209 190 254 293 244 196 144 80 120 170 188 186 221 131 118 180 165 176 164 180 139 146 141 127 114 101 89 78 66
331 328 330 346 288 14 309 295 306 321 284 139 167 151 182 188 130 177 199 233 225 112 79 128 172 191 202 113 360 154 138 151 174 197 158 201 226 154 154 141 123 105 87 78 72
327 328 317 357 301 286 301 263 265 245 243 189 150 193 176 210 210 132 179 227 278 144 209 152 167 225 125 94 345 138 150 174 195 219 230 190 209 173 183 146 123 114 100 92 81
319 325 309 289 190 245 282 276 204 193 249 185 189 191 197 187 187 184 183 191 172 179 152 143 182 100 141 136 159 183 168 150 191 185 236 155 177 105 109 115 124 120 113 101 87
312 323 305 278 242 285 258 219 218 223 240 74 187 196 203 188 197 198 190 197 220 208 163 179 181 168 202 209 187 207 203 220 200 201 154 160 178 151 124 124 126 126 117 108 88
309 323 299 287 277 220 220 219 210 224 207 235 195 196 208 194 212 201 212 209 190 217 191 200 125 107 187 237 287 178 223 313 261 242 160 155 88 104 137 140 143 138 130 114 87
304 306 289 224 236 207 228 228 227 246 286 197 205 203 205 195 194 198 201 214 196 212 267 286 124 184 156 259 254 269 183 187 241 203 208 173 167 173 173 166 161 158 161 136 93
291 293 282 186 205 215 222 229 233 250 264 247 230 220 224 194 196 199 200 161 167 183 243 208 129 157 153 208 189 184 204 236 270 316 235 191 128 131 164 164 163 164 156 134 98
265 253 243 194 207 237 232 224 242 239 243 256 258 237 221 218 199 219 223 179 181 185 197 157 206 163 196 86 344 251 207 202 213 185 241 347 104 118 140 134 147 152 163 179 162
263 254 247 232 233 232 265 235 245 254 250 236 242 239 242 245 192 224 212 127 161 185 195 155 167 158 186 234 216 229 225 199 104 301 211 184 138 137 140 141 158 164 194 173 164
272 264 226 230 239 250 227 249 238 236 253 243 242 240 232 244 175 208 148 157 168 187 65 115 211 191 206 188 156 195 201 203 176 191 231 195 138 160 164 173 175 176 180 181 149
241 264 229 212 241 240 258 247 238 237 227 246 222 236 217 219 185 215 148 160 187 127 164 236 222 202 73 54 161 183 191 191 199 198 193 213 172 180 185 186 191 175 171 187 207
249 258 257 263 255 225 232 248 243 244 232 227 224 225 210 223 205 200 166 177 176 169 184 221 198 183 174 169 185 195 201 196 209 205 206 221 208 110 136 155 166 192 196 196 218
262 264 270 296 253 244 234 230 246 245 254 233 228 228 220 220 215 228 175 181 194 169 183 172 162 160 205 182 163 272 228 215 211 213 213 214 214 220 161 181 183 194 198 196 195
Wind_Speed_850mb
32 29 28 26 25 24 26 28 29 27 25 23 19 20 18 17 12 8 11 23 27 22 11 10 17 20 19 22 20 19 19 24 24 31 23 21 31 13 47 49 45 44 33 22 21
33 30 27 26 27 27 26 27 29 27 24 22 19 15 14 12 12 14 32 32 25 14 11 9 15 13 22 19 16 17 17 11 25 27 18 27 43 23 37 42 39 38 35 25 18
34 30 29 26 26 27 27 28 28 27 24 22 20 17 20 11 15 13 21 27 20 14 13 18 21 16 27 20 19 19 10 22 20 16 18 33 40 36 25 25 26 26 28 28 19
33 33 30 29 28 27 28 26 25 23 22 19 18 18 22 14 6 9 20 17 13 8 11 19 21 26 19 24 25 7 4 22 18 21 14 23 36 33 33 21 16 18 20 22 24
34 33 31 30 31 28 26 23 21 17 17 14 13 15 22 16 23 14 17 10 3 12 16 21 23 27 27 29 15 21 22 17 12 16 15 8 35 30 26 14 17 19 26 26 37
39 36 33 30 32 27 26 23 19 11 10 9 11 18 23 27 8 11 21 9 10 11 15 18 23 24 20 8 17 24 27 16 9 15 6 26 28 33 22 17 24 31 35 53 53
39 39 37 31 27 28 26 23 15 8 6 11 14 17 16 21 5 7 13 8 11 10 14 13 14 18 8 9 3 17 27 17 7 14 3 46 26 22 18 18 30 35 50 48 49
40 40 43 32 28 25 24 19 13 6 10 14 14 13 14 10 10 8 7 10 7 9 8 9 12 15 15 16 16 20 22 14 10 14 7 5 25 23 20 32 38 45 46 48 47
39 38 41 35 31 22 18 13 6 5 13 16 12 15 18 6 9 7 6 9 7 10 12 8 9 13 10 23 21 28 24 24 13 24 15 13 23 25 30 35 42 45 44 45 45
38 38 37 34 29 21 7 4 6 11 6 15 20 18 20 13 9 8 6 11 8 11 11 14 16 13 19 24 26 31 33 34 20 23 21 37 29 26 34 34 41 40 40 41 45
38 36 37 32 23 15 10 7 5 11 24 18 16 18 9 7 10 6 10 10 12 13 18 26 17 23 33 35 37 38 32 32 23 34 39 35 32 28 36 36 36 36 37 38 41
40 37 33 31 19 7 6 13 13 14 17 35 24 16 7 12 11 7 14 18 16 22 26 17 27 11 10 2 17 17 34 33 21 34 35 36 34 28 31 31 32 33 31 33 35
43 35 33 25 13 6 9 13 17 15 15 25 32 30 22 20 10 11 13 23 18 20 24 25 19 5 7 10 20 17 33 33 36 23 38 38 30 28 29 31 30 28 29 29 30
51 36 29 20 4 8 9 13 15 11 10 22 24 18 24 15 13 8 9 10 9 25 16 13 8 12 16 22 16 20 9 32 40 36 31 42 16 28 30 26 25 25 24 25 25
54 38 23 17 10 8 15 20 10 8 8 31 29 18 27 25 23 16 13 8 16 17 5 11 17 20 25 15 9 13 9 18 32 31 19 38 10 26 29 27 22 28 24 25 23
51 45 27 6 16 18 23 8 2 4 14 17 24 20 24 32 17 15 20 11 7 13 12 20 11 4 9 13 9 24 19 12 17 18 16 25 27 25 28 28 21 23 27 23 24
48 52 34 25 10 11 9 5 7 10 12 21 23 26 33 23 24 18 22 24 16 21 29 15 14 4 18 23 13 24 29 13 14 13 15 24 15 21 29 24 26 23 28 24 22
47 53 33 28 20 16 6 11 16 20 32 11 20 28 36 30 26 25 26 28 32 27 27 22 11 21 24 14 14 31 33 7 14 20 18 13 14 19 28 31 26 24 23 21 19
43 40 35 25 20 16 22 19 15 18 28 31 21 25 35 32 21 27 31 31 28 34 18 29 14 16 15 8 16 26 14 8 4 4 14 20 19 20 27 26 25 20 19 14 12
40 41 44 22 26 21 21 26 26 36 31 28 34 31 39 39 21 27 31 31 31 26 3 4 14 20 12 10 12 11 6 10 7 9 10 24 28 14 35 29 24 23 17 13 8
29 19 11 25 26 31 20 21 40 48 30 20 33 30 37 31 34 35 26 11 19 19 20 5 12 17 15 20 25 12 12 10 7 5 10 10 8 25 36 31 26 23 17 8 5
25 8 13 20 23 20 22 42 35 41 47 31 35 47 27 38 37 36 35 22 26 30 17 6 10 16 29 12 11 20 23 22 9 13 8 8 11 20 26 30 23 17 13 9 3
16 26 27 16 13 19 25 48 59 46 46 31 30 28 30 34 30 37 36 23 34 27 21 15 12 16 10 6 12 12 16 19 4 3 18 7 15 19 28 27 22 16 13 10 10
20 6 31 35 42 32 35 43 47 53 56 49 31 32 28 35 28 27 23 16 30 26 12 6 14 16 13 3 25 23 29 24 17 6 5 12 31 28 24 22 29 16 14 14 8
17 10 18 9 22 32 39 32 47 50 53 43 38 40 33 29 32 26 30 24 26 11 13 6 12 14 3 8 16 28 33 31 28 15 12 13 30 36 32 24 20 13 17 14 11
19 15 40 44 47 37 44 39 53 46 49 49 41 41 34 31 34 30 30 35 22 20 26 11 11 17 10 7 3 16 22 32 31 29 21 14 9 17 22 21 15 20 19 13 7
34 58 50 29 43 37 33 52 45 49 59 66 46 33 37 41 34 30 46 44 14 26 28 22 15 18 10 16 7 9 33 33 31 33 29 25 20 19 10 18 24 23 19 13 6
Wind_Direction_850mb
333 329 324 317 306 292 282 280 276 275 272 270 268 272 270 263 249 247 265 241 266 268 281 319 317 270 251 257 252 280 270 253 323 85 92 53 77 47 89 69 56 49 74 83 117
336 330 326 317 307 298 287 283 279 275 268 263 257 250 242 223 243 283 238 263 271 270 232 332 296 249 238 243 225 219 229 52 39 62 86 72 58 11 90 63 53 52 45 85 100
334 331 327 321 313 303 294 289 284 277 268 258 250 222 211 242 294 228 241 269 267 263 248 297 280 267 249 229 223 236 290 90 58 23 42 90 74 38 68 59 52 52 50 40 72
334 331 329 325 320 309 298 293 289 282 270 262 248 217 208 218 264 286 273 269 254 244 266 272 255 239 234 228 213 221 26 61 80 47 50 74 98 68 56 57 59 68 57 54 54
330 332 326 329 322 312 302 296 294 289 279 263 241 208 188 225 255 313 298 303 220 286 268 248 243 239 237 209 181 243 109 105 110 89 57 167 99 85 54 59 77 79 71 59 46
333 331 323 332 323 315 308 298 292 286 273 239 210 188 182 241 251 314 294 303 288 265 257 240 240 249 304 224 206 142 128 105 90 103 83 96 59 55 49 70 78 78 77 56 51
336 331 323 333 320 320 308 298 285 268 216 196 182 182 237 237 297 303 309 284 254 250 249 247 258 224 203 63 44 141 130 103 54 167 108 115 74 63 66 89 83 74 68 58 52
336 336 323 332 317 325 310 297 279 216 170 182 193 204 261 224 220 321 271 272 248 238 236 242 247 258 195 123 154 186 176 180 131 168 169 293 94 70 62 87 82 73 67 63 58
335 336 327 331 321 329 310 296 249 176 163 170 204 222 252 226 190 256 231 230 211 216 226 235 178 194 195 178 178 199 198 179 130 187 160 168 109 80 79 90 85 83 77 68 63
333 332 331 331 327 329 323 322 156 140 157 187 263 237 224 225 182 208 224 176 199 187 198 200 202 197 211 207 197 194 228 168 132 168 141 112 108 104 99 93 94 88 79 72 65
330 330 330 330 330 331 112 66 241 232 215 215 285 239 141 166 186 191 200 182 191 219 216 199 211 205 202 212 240 290 199 106 136 126 121 121 118 106 105 100 91 84 81 77 69
331 328 331 328 329 314 186 346 19 319 290 235 250 252 172 194 182 182 171 202 198 217 219 179 227 77 18 296 238 191 128 130 121 133 129 128 120 115 102 92 91 91 78 68 70
329 328 328 332 343 62 315 304 330 320 256 209 217 220 208 203 215 164 207 214 215 224 202 205 106 130 173 199 208 167 143 155 170 182 136 132 131 129 125 118 110 93 82 77 68
335 325 332 333 346 321 296 299 315 338 275 196 197 217 181 203 209 190 254 293 244 196 144 80 120 170 188 186 221 131 118 180 165 176 164 180 139 146 141 127 114 101 89 78 66
331 328 330 346 288 14 309 295 306 321 284 139 167 151 182 188 130 177 199 233 225 112 79 128 172 191 202 113 360 154 138 151 174 197 158 201 226 154 154 141 123 105 87 78 72
327 328 317 357 301 286 301 263 265 245 243 189 150 193 176 210 210 132 179 227 278 144 209 152 167 225 125 94 345 138 150 174 195 219 230 190 209 173 183 146 123 114 100 92 81
319 325 309 289 190 245 282 276 204 193 249 185 189 191 197 187 187 184 183 191 172 179 152 143 182 100 141 136 159 183 168 150 191 185 236 155 177 105 109 115 124 120 113 101 87
312 323 305 278 242 285 258 219 218 223 240 74 187 196 203 188 197 198 190 197 220 208 163 179 181 168 202 209 187 207 203 220 200 201 154 160 178 151 124 124 126 126 117 108 88
309 323 299 287 277 220 220 219 210 224 207 235 195 196 208 194 212 201 212 209 190 217 191 200 125 107 187 237 287 178 223 313 261 242 160 155 88 104 137 140 143 138 130 114 87
304 306 289 224 236 207 228 228 227 246 286 197 205 203 205 195 194 198 201 214 196 212 267 286 124 184 156 259 254 269 183 187 241 203 208 173 167 173 173 166 161 158 161 136 93
291 293 282 186 205 215 222 229 233 250 264 247 230 220 224 194 196 199 200 161 167 183 243 208 129 157 153 208 189 184 204 236 270 316 235 191 128 131 164 164 163 164 156 134 98
265 253 243 194 207 237 232 224 242 239 243 256 258 237 221 218 199 219 223 179 181 185 197 157 206 163 196 86 344 251 207 202 213 185 241 347 104 118 140 134 147 152 163 179 162
263 254 247 232 233 232 265 235 245 254 250 236 242 239 242 245 192 224 212 127 161 185 195 155 167 158 186 234 216 229 225 199 104 301 211 184 138 137 140 141 158 164 194 173 164
272 264 226 230 239 250 227 249 238 236 253 243 242 240 232 244 175 208 148 157 168 187 65 115 211 191 206 188 156 195 201 203 176 191 231 195 138 160 164 173 175 176 180 181 149
241 264 229 212 241 240 258 247 238 237 227 246 222 236 217 219 185 215 148 160 187 127 164 236 222 202 73 54 161 183 191 191 199 198 193 213 172 180 185 186 191 175 171 187 207
249 258 257 263 255 225 232 248 243 244 232 227 224 225 210 223 205 200 166 177 176 169 184 221 198 183 174 169 185 195 201 196 209 205 206 221 208 110 136 155 166 192 196 196 218
262 264 270 296 253 244 234 230 246 245 254 233 228 228 220 220 215 228 175 181 194 169 183 172 162 160 205 182 163 272 228 215 211 213 213 214 214 220 161 181 183 194 198 196 195